Regional Weather Roundup
Issued by NWS Wakefield, VA

Home | Current Version | Previous Version | Graphics & Text | Print | Product List | Glossary On
Versions: 1 2 3 4 5 6 7 8 9 10 11 12 13 14 15 16 17 18 19 20 21 22 23 24 25 26 27 28 29 30 31 32 33 34 35 36 37 38 39 40 41 42 43 44 45 46 47 48 49 50
000
ASUS41 KAKQ 241010
RWRAKQ

REGIONAL WEATHER ROUNDUP
NATIONAL WEATHER SERVICE WAKEFIELD VA
500 AM EST MON NOV 24 2014

Note: "fair" indicates few or no clouds below 12,000 feet with no
significant weather and/or obstructions to visibility. * = Denotes
station may not report precipitation (e.g., rain,snow,etc.),
thunder or fog.

VAZ042-051-052>054-056-241100-
NORTHERN VIRGINIA

CITY           SKY/WX    TMP DP  RH WIND       PRES   REMARKS
WASH NATIONAL  MOCLDY    60  55  83 S16       29.66S
DULLES         LGT RAIN  63  61  94 SW8       29.65S
FORT BELVOIR   PTCLDY    66  61  84 S12G20    29.66S
QUANTICO       CLOUDY    58  55  90 SW15      29.67S
FREDERICKSBRG* CLOUDY    66  64  94 S16G22    29.66S
STAFFORD*      CLOUDY    66  66 100 S10G17    29.70S
WARRENTON      CLOUDY    62  62 100 SW3       29.64R
CULPEPER*      MOCLDY    61  57  88 S3        29.64F
MANASSAS*      CLOUDY    64  64 100 SW9       29.65R
LEESBURG*      CLOUDY    61  61 100 SW8       29.65R
WINCHESTER       N/A     48  45  87 NW7       29.60S FOG
FRONT ROYAL*     N/A     50  50 100 CALM      29.59F VSB 1
LURAY*         PTSUNNY   55  55 100 CALM      29.61S
$$

VAZ048-049-060>072-079>083-241100-
CENTRAL AND SOUTH CENTRAL VIRGINIA

CITY           SKY/WX    TMP DP  RH WIND       PRES   REMARKS
RICHMOND       MOCLDY    67  63  87 S15       29.71F
CHESTERFIELD*  MOSUNNY   64  55  72 S10       29.72F
PETERSBURG*    PTCLDY    67  64  90 S9        29.73F
HANOVER        MOCLDY    66  62  87 S15G23    29.71F
TAPPAHANNOCK*  CLOUDY    68  62  81 S13G21    29.72S
QUINTON*       CLOUDY    66  64  91 S8G20     29.72S
CHARLOTTSVILLE CLEAR     56  55  97 S13       29.65F
GORDONSVILLE*  PTSUNNY   58  57  97 SW6       29.65F
ORANGE*        MOCLDY    63  59  88 S12G17    29.66F
LOUISA*        CLOUDY    64  61  88 S8G17     29.66S
BUMPASS*       CLOUDY    65  60  86 S9G18     29.67F
FARMVILLE*     PTCLDY    65  64  97 S15G21    29.67F
CREWE*         CLOUDY    64  61  90 S8        29.71S
FORT PICKETT*  MOSUNNY   63  61  94 S15       29.72F
CHASE CITY*    SUNNY     63  63  99 S3        29.73S
CLARKSVILLE*   SUNNY     61  59  94 S9        29.74R
SOUTH HILL*    MOCLDY    62  60  94 S9        29.80S
LAWRENCEVILLE* MOSUNNY   64  63  96 S7        29.74F
$$

VAZ088>098-241100-
SOUTHEAST VIRGINIA

CITY           SKY/WX    TMP DP  RH WIND       PRES   REMARKS
NORFOLK        CLOUDY    68  64  87 S18G26    29.76F
VIRGINIA BEACH CLOUDY    68  64  87 S14G21    29.76F
NORFOLK NAVAL  CLOUDY    70  65  84 S13G22    29.78F
WEST POINT*    MOCLDY    69  64  84 S12G18    29.74F
SALUDA*        CLOUDY    66  64  91 S12G23    29.73S
NEWPORT NEWS   LGT RAIN  70  64  81 S15G25    29.76F
LANGLEY AFB    CLOUDY    66 N/A N/A S15       29.77F
FORT EUSTIS    CLOUDY    66 N/A N/A S9G21     29.74S
WILLIAMSBURG*  MOCLDY    70  66  88 S10G18    29.76S
HR EXEC AP*    CLOUDY    66  64  94 S15G28    29.79S
FRANKLIN*      CLOUDY    68  66  94 S8        29.76F
WAKEFIELD      CLEAR     68  64  87 S8        29.75S
$$

VAZ020-022-025-037-045-241100-
WEST CENTRAL AND SOUTHWEST VIRGINIA

CITY           SKY/WX    TMP DP  RH WIND       PRES   REMARKS
STAUNTON*      PTCLDY    49  47  95 CALM      29.66R FOG
WAYNESBORO*    SUNNY     58  53  81 S9G21     29.64S
HOT SPRINGS VA FOG       49  49 100 S8G16     29.66R VSB 3/4
LYNCHBURG      CLEAR     56  54  93 SW12      29.71S
DANVILLE       CLOUDY    62  55  77 SW8       29.74R
SOUTH BOSTON*  PTSUNNY   63  59  88 SW9G16    29.74R
MARTINSVILLE   CLOUDY    56  56 100 CALM      29.74S
ROANOKE        FOG       51  50  96 CALM      29.71R VSB 1
BLACKSBURG     CLEAR     52  52 100 CALM      29.70S
DUBLIN*        PTCLDY    54  53  97 S9        29.68S
MARION*        MOCLDY    55  48  76 CALM      29.68S
HILLSVILLE*    CLOUDY    50  50  97 S7        29.69F
RICHLANDS*     PTSUNNY   60  49  67 SW16G25   29.63S
WISE*          CLOUDY    57  46  67 SW17G32   29.61F
ABINGDON*      PTCLDY    58  50  74 W6        29.63F
$$

MDZ021>025-VAZ099-100-241100-
SOUTHERN MARYLAND AND THE DELMARVA PENINSULA

CITY           SKY/WX    TMP DP  RH WIND       PRES   REMARKS
PATUXENT RIVER CLOUDY    64  61  90 S12G22    29.70S
BAY BRIDGE APT   N/A     57  57 100 S15G24    29.70R FOG
LEONARDTOWN    CLOUDY    64  61  88 S9        29.72S
DOVER          CLOUDY    65  65 100 S24G33    29.69S
GEORGETOWN     CLOUDY    66  62  87 S22G30    29.74F
EASTON         CLOUDY    65  65 100 SW20G33   29.74S
CAMBRIDGE      CLOUDY    63  59  88 S14G26    29.72R
SALISBURY      CLOUDY    68  63  84 S18G30    29.75S
OCEAN CITY     LGT RAIN  60  59  96 SW16G25   29.77R FOG
WALLOPS ISLAND FOG       60  60 100 SW22G30   29.78F VSB 1
ACCOMACK*      CLOUDY    63  59  88 S17G30    29.77S FOG
$$

NCZ012>017-030>032-241100-
NORTH CENTRAL AND EASTERN NORTH CAROLINA

CITY           SKY/WX    TMP DP  RH WIND       PRES   REMARKS
ROANOKE RAPIDS PTSUNNY   64  63  94 S8        29.76F
RALEIGH        PTCLDY    62  58  86 S10       29.78R
ELIZABETH CITY CLOUDY    70  65  84 S9        29.79S
AHOSKIE*       MOCLDY    67  65  93 S6        29.78S
EDENTON*       CLOUDY    66  65  97 S13G22    29.80R FOG
CURRITUCK*     CLOUDY    67  64  92 S7        29.79F
KILL DEVIL HLS CLOUDY    64  64  97 S10G20    29.81R FOG
MANTEO         CLOUDY    58  58  99 S18       29.83S
CAPE HATTERAS  CLOUDY    70  67  90 SW21G31   29.86R FOG
TARBORO*       MOSUNNY   68  64  89 S6        29.80S
GOLDSBORO      PTCLDY    66  66  99 SW6       29.79R
WASHINGTON     MOCLDY    68  66  94 S6        29.81R
GREENVILLE     MOCLDY    68  66  94 SW8       29.83R
NEW BERN       LGT RAIN  70  66  87 SW9       29.84R
WILMINGTON     CLOUDY    67  65  93 SW10      29.83S
$$

VAZ048-241100-
ELSEWHERE

CITY           SKY/WX    TMP DP  RH WIND       PRES   REMARKS
HARRISBURG PA  MOCLDY    60  57  89 S12       29.60F
BALTIMORE      CLOUDY    61  59  93 SE5       29.66S
ANNAPOLIS      CLOUDY    56  54  93 S15G24    29.67F FOG
ANDREWS AFB    CLOUDY    65  63  94 S18       29.66S
PHILADELPHIA   CLOUDY    64  59  83 S25G38    29.69F
WILDWOOD NJ*   CLOUDY    61  55  82 S21G26    29.72F
HENDERSON NC   MOCLDY    62  60  93 S9        29.75F
GREENSBORO     CLOUDY    61  55  82 SW13      29.74R
ROCKY MOUNT    CLEAR     65  62  90 S8        29.79S
$$

VAZ100-241100-
MARINE

STATION/POSITION TIME  TEMP    WIND        PRES    WAVE   SWELL
                       AIR SEA DIR/SP/G            HT/PER HT/PER
                 (UTC) (F)     (DEG/KT/KT) (MB)    (FT/S) (FT/S)
CAPE MAY NJ      1000   58 47  160/ 14/ 24 1006.9S
LEWES DE         1000   62 47  180/ 12/ 18 1006.7R
15NM E FENWICK I 1000   60 53              1007.0F   6/ 6
OCEAN-CITY-INLET 1000   57 49  220/ 16/ 19 1008.0R
WACHAPREAGUE VA  1000   60 46  220/ 17/ 21 1008.2S
THOMAS POINT MD  1000   54 48  170/ 25/ 26 1006.1R
GOOSES REEF MD   1000   53     180/ 17/ 21 1006.2S
COVE POINT MD    1000   55     170/ 17/ 18 1006.0R
SOLOMONS ISLAND  1000      50                N/A
BISHOPS HEAD MD  1000   57 44  180/ 20/ 23 1006.1R
PINEY POINT MD   1000          200/ 13/ 15   N/A
POTOMAC MD       1000   56     160/ 10/ 12 1005.9S
CAMBRIDGE MD     1000   63 43  190/  6/ 14 1006.2R
LEWISETTA VA     1000   66 45  190/ 15/ 19 1005.8R
RAPPAHANNOCK LGT 1000          170/ 23/ 25 1007.5F
STINGRAY PT      1000   58     170/ 12/ 19 1008.1R
YORK RVR RNG VA  1000   62     190/ 19/ 21 1007.1R
YORKTOWN VA      1000   67 50  190/ 11/ 15 1007.1R
JAMESTOWN VA     1000   64     200/ 14/ 17   N/A
DOMINION TERM VA 1000   64     190/ 16/ 20 1007.6R
KIPTOPEKE VA     1000      55  180/ 18/ 19   N/A
CHES BAY BRIDGE  1000   66 51  170/ 21/ 25 1006.9F
CAPE HENRY VA    1000   67     170/ 14/ 24 1006.6F
CHESAPEAKE LGHT  0900   61     180/ 27/ 28 1009.0R
WILLOUBY STN VA  1000   67     190/ 18/ 20 1006.5R
S CRANEY ISL VA  1000          180/  9/ 17 1007.6S
CAPE HENRY BUOY  1000      54                N/A     8/ 9   2/11
1ST LANDING BUOY 1000   64     190/ 21/ 29 1007.9F
CAPE CHARLES BUO 1000      54                N/A     7/ 9   5/ 9
64NM E OF VA BCH 1000   67 61  170/ 23/ 27 1009.3S  11/ 9   8/ 9
DUCK PIER NC     1000   68 56  170/ 26/ 30 1007.4F
44100 DUCK FRF   1000      58                N/A    11/ 9   3/11
44056 DUCK FRF   1000      58                N/A     8/ 9   2/11
OREGON INLET NC  1000   61 53  170/ 16/ 21 1009.8S
HATTERAS NC      1000   70 60  200/ 10/ 15 1011.2R
DIAMOND SHLS NC  1000   75     170/ 23/ 29 1010.4R  14/ 9   8/15
CAPE LOOKOUT NC  0900   64     190/ 10/ 11 1010.5F
$$


USA.gov is the U.S. government's official web portal to all federal, state and local government web resources and services.